• In Uzbekistan
  • List of Countries
  • For 7 days
  • Water Temperature
  • Satellite Maps
  • Weather Map
  • Weather Widgets
  • user-avatar
    Login

    Hourly Weather Bregenz

    Today, 27 February, Monday

    Time Temperature Precipitation Wind Pressure Humidity
    00:00 -2°C° 0 mm 1 mps 642 mmHg 88%
    01:00 -1°C° 0 mm 1 mps 641 mmHg 87%
    02:00 -1°C° 0 mm 1 mps 641 mmHg 88%
    03:00 -1°C° 0 mm 1 mps 641 mmHg 89%
    04:00 -1°C° 0 mm 1 mps 641 mmHg 90%
    05:00 -1°C° 0.1 mm 1 mps 641 mmHg 90%
    06:00 -1°C° 0.1 mm 1 mps 641 mmHg 91%
    07:00 -1°C° 0.1 mm 1 mps 641 mmHg 92%
    08:00 +1°C° 0 mm 1 mps 641 mmHg 89%
    09:00 +3°C° 0 mm 1 mps 641 mmHg 87%
    10:00 +4°C° 0 mm 1 mps 641 mmHg 84%
    11:00 +5°C° 0 mm 1 mps 641 mmHg 83%
    12:00 +5°C° 0 mm 2 mps 640 mmHg 81%
    13:00 +6°C° 0 mm 2 mps 640 mmHg 79%
    14:00 +6°C° 0 mm 2 mps 639 mmHg 80%
    15:00 +5°C° 0 mm 2 mps 639 mmHg 82%
    16:00 +5°C° 0 mm 2 mps 638 mmHg 83%
    17:00 +3°C° 0 mm 2 mps 638 mmHg 86%
    18:00 0°C° 0 mm 3 mps 637 mmHg 88%
    19:00 -1°C° 0 mm 3 mps 637 mmHg 91%
    20:00 -2°C° 0 mm 3 mps 636 mmHg 90%
    21:00 -2°C° 0 mm 3 mps 636 mmHg 89%
    22:00 -4°C° 0 mm 3 mps 636 mmHg 89%
    23:00 -4°C° 0 mm 3 mps 635 mmHg 88%

    Tomorrow, 28 February, Tuesday

    Time Temperature Precipitation Wind Pressure Humidity
    00:00 -2°C° 0 mm 3 mps 635 mmHg 88%
    01:00 -2°C° 0 mm 3 mps 634 mmHg 87%
    02:00 -2°C° 0.1 mm 3 mps 634 mmHg 88%
    03:00 -2°C° 0.1 mm 3 mps 633 mmHg 88%
    04:00 -2°C° 0.1 mm 3 mps 633 mmHg 89%
    05:00 -2°C° 1.2 mm 3 mps 633 mmHg 91%
    06:00 -2°C° 1.2 mm 3 mps 633 mmHg 93%
    07:00 -2°C° 1.2 mm 3 mps 633 mmHg 95%
    08:00 -2°C° 1.6 mm 3 mps 633 mmHg 96%
    09:00 -2°C° 1.6 mm 2 mps 633 mmHg 96%
    10:00 -2°C° 1.6 mm 2 mps 633 mmHg 97%
    11:00 -2°C° 0.6 mm 2 mps 632 mmHg 96%
    12:00 -1°C° 0.6 mm 2 mps 632 mmHg 96%
    13:00 +1°C° 0.6 mm 2 mps 631 mmHg 96%
    14:00 +1°C° 0.5 mm 2 mps 630 mmHg 96%
    15:00 +2°C° 0.5 mm 2 mps 630 mmHg 96%
    16:00 +1°C° 0.5 mm 3 mps 629 mmHg 97%
    17:00 -1°C° 2.1 mm 3 mps 630 mmHg 96%
    18:00 -3°C° 2.1 mm 4 mps 630 mmHg 96%
    19:00 -5°C° 2.1 mm 5 mps 631 mmHg 96%
    20:00 -6°C° 1.1 mm 5 mps 631 mmHg 96%
    21:00 -5°C° 1.1 mm 4 mps 632 mmHg 96%
    22:00 -5°C° 1.1 mm 4 mps 632 mmHg 96%
    23:00 -7°C° 0.5 mm 4 mps 633 mmHg 96%

    Day after tomorrow, 1 March, Wednesday

    Time Temperature Precipitation Wind Pressure Humidity
    00:00 -7°C° 0.5 mm 4 mps 633 mmHg 96%
    01:00 -8°C° 0.5 mm 4 mps 634 mmHg 96%
    02:00 -8°C° 0.1 mm 4 mps 634 mmHg 95%
    03:00 -8°C° 0.1 mm 3 mps 634 mmHg 95%
    04:00 -9°C° 0.1 mm 3 mps 634 mmHg 94%
    05:00 -9°C° 0.1 mm 3 mps 634 mmHg 94%
    06:00 -8°C° 0.1 mm 3 mps 634 mmHg 93%
    07:00 -9°C° 0.1 mm 4 mps 635 mmHg 93%
    08:00 -8°C° 0.3 mm 4 mps 636 mmHg 93%
    09:00 -7°C° 0.3 mm 4 mps 636 mmHg 93%
    10:00 -6°C° 0.3 mm 5 mps 637 mmHg 94%
    11:00 -5°C° 0.4 mm 5 mps 638 mmHg 93%
    12:00 -5°C° 0.4 mm 5 mps 638 mmHg 93%
    13:00 -4°C° 0.4 mm 5 mps 639 mmHg 93%
    14:00 -3°C° 0.4 mm 4 mps 639 mmHg 92%
    15:00 -3°C° 0.4 mm 4 mps 639 mmHg 92%
    16:00 -3°C° 0.4 mm 4 mps 640 mmHg 92%
    17:00 -4°C° 0 mm 3 mps 640 mmHg 93%
    18:00 -5°C° 0 mm 3 mps 640 mmHg 93%
    19:00 -5°C° 0 mm 2 mps 640 mmHg 93%
    20:00 -6°C° 0.1 mm 3 mps 640 mmHg 93%
    21:00 -6°C° 0.1 mm 3 mps 640 mmHg 92%
    22:00 -6°C° 0.1 mm 3 mps 640 mmHg 92%
    23:00 -5°C° 0.5 mm 3 mps 640 mmHg 93%

    2 March, Thursday

    Time Temperature Precipitation Wind Pressure Humidity
    00:00 -5°C° 0.5 mm 3 mps 640 mmHg 94%
    01:00 -4°C° 0.5 mm 4 mps 640 mmHg 95%
    02:00 -4°C° 0.8 mm 3 mps 640 mmHg 96%
    03:00 -2°C° 0.8 mm 3 mps 640 mmHg 96%
    04:00 -2°C° 0.8 mm 3 mps 640 mmHg 96%
    05:00 -2°C° 0.9 mm 3 mps 641 mmHg 96%
    06:00 -2°C° 0.9 mm 3 mps 641 mmHg 96%
    07:00 -2°C° 0.9 mm 3 mps 641 mmHg 97%
    08:00 -1°C° 1 mm 2 mps 642 mmHg 97%
    09:00 -1°C° 1 mm 2 mps 642 mmHg 97%
    10:00 +1°C° 1 mm 2 mps 643 mmHg 98%
    11:00 +1°C° 0.5 mm 2 mps 643 mmHg 97%
    12:00 +2°C° 0.5 mm 2 mps 643 mmHg 97%
    13:00 +3°C° 0.5 mm 1 mps 644 mmHg 96%
    14:00 +3°C° 0.2 mm 1 mps 644 mmHg 96%
    15:00 +3°C° 0.2 mm 1 mps 644 mmHg 96%
    16:00 +3°C° 0.2 mm 1 mps 643 mmHg 96%
    17:00 +2°C° 0 mm 1 mps 643 mmHg 96%
    18:00 +1°C° 0 mm 1 mps 643 mmHg 96%
    19:00 0°C° 0 mm 1 mps 643 mmHg 96%
    20:00 0°C° 0 mm 1 mps 643 mmHg 96%
    21:00 -2°C° 0 mm 2 mps 643 mmHg 95%
    22:00 -2°C° 0 mm 2 mps 643 mmHg 94%
    23:00 -2°C° 0 mm 2 mps 642 mmHg 94%

    3 March, Friday

    Time Temperature Precipitation Wind Pressure Humidity
    00:00 -3°C° 0 mm 2 mps 642 mmHg 94%
    01:00 -3°C° 0 mm 2 mps 642 mmHg 94%
    02:00 -3°C° 0 mm 2 mps 641 mmHg 93%
    03:00 -3°C° 0 mm 2 mps 641 mmHg 93%
    04:00 -4°C° 0 mm 3 mps 641 mmHg 93%
    05:00 -4°C° 0 mm 3 mps 640 mmHg 93%
    06:00 -4°C° 0 mm 3 mps 640 mmHg 93%
    07:00 -4°C° 0 mm 3 mps 640 mmHg 93%
    08:00 -2°C° 0 mm 2 mps 640 mmHg 93%
    09:00 +1°C° 0 mm 2 mps 640 mmHg 93%
    10:00 +2°C° 0 mm 2 mps 640 mmHg 93%
    11:00 +3°C° 0 mm 2 mps 640 mmHg 92%
    12:00 +4°C° 0 mm 2 mps 640 mmHg 91%
    13:00 +4°C° 0 mm 2 mps 639 mmHg 90%
    14:00 +3°C° 0 mm 3 mps 639 mmHg 90%
    15:00 +4°C° 0 mm 3 mps 638 mmHg 89%
    16:00 +4°C° 0 mm 3 mps 637 mmHg 89%
    17:00 +2°C° 0 mm 3 mps 637 mmHg 90%
    18:00 +1°C° 0 mm 3 mps 636 mmHg 91%
    19:00 0°C° 0 mm 3 mps 636 mmHg 92%
    20:00 -1°C° 0.3 mm 4 mps 636 mmHg 93%
    21:00 -2°C° 0.3 mm 4 mps 637 mmHg 93%
    22:00 -2°C° 0.3 mm 4 mps 637 mmHg 93%
    23:00 -2°C° 0.7 mm 4 mps 637 mmHg 94%

    4 March, Saturday

    Time Temperature Precipitation Wind Pressure Humidity
    00:00 -1°C° 0.7 mm 3 mps 638 mmHg 94%
    01:00 -2°C° 0.7 mm 2 mps 638 mmHg 94%
    02:00 -2°C° 0 mm 2 mps 638 mmHg 94%
    03:00 -3°C° 0 mm 2 mps 637 mmHg 93%
    04:00 -3°C° 0 mm 2 mps 637 mmHg 93%
    05:00 -3°C° 0 mm 2 mps 637 mmHg 93%
    06:00 -3°C° 0 mm 2 mps 637 mmHg 92%
    07:00 -3°C° 0 mm 2 mps 637 mmHg 92%
    08:00 -1°C° 0 mm 2 mps 637 mmHg 91%
    09:00 0°C° 0 mm 3 mps 637 mmHg 91%
    10:00 +2°C° 0 mm 3 mps 638 mmHg 90%
    11:00 +3°C° 0 mm 3 mps 638 mmHg 88%
    12:00 +4°C° 0 mm 3 mps 637 mmHg 86%
    13:00 +5°C° 0 mm 3 mps 637 mmHg 84%
    14:00 +5°C° 0 mm 3 mps 637 mmHg 85%
    15:00 +6°C° 0 mm 2 mps 636 mmHg 87%
    16:00 +6°C° 0 mm 2 mps 636 mmHg 88%
    17:00 +4°C° 0 mm 2 mps 636 mmHg 89%
    18:00 +2°C° 0 mm 3 mps 636 mmHg 91%
    19:00 +1°C° 0 mm 3 mps 636 mmHg 93%
    20:00 +1°C° 0 mm 3 mps 635 mmHg 92%
    21:00 0°C° 0 mm 3 mps 635 mmHg 92%
    22:00 0°C° 0 mm 3 mps 635 mmHg 91%
    23:00 0°C° 0 mm 3 mps 635 mmHg 91%
    Show more